N4JEX-1 Weather Reports


Display with metric or nautical units.
time (UTC)temp
F
wind
direction
speed
MPH
gust
MPH
rain 1hr
in
rain 24hr
in
rain mn
in
humidity
%
barometer
mb
20260510214221 81 247 1.0 2.0 0.00 0.00 0.00 32 1014.8
20260510213217 81 277 0.0 3.0 0.00 0.00 0.00 32 1014.9
20260510212233 81 126 0.0 3.0 0.00 0.00 0.00 34 1014.7
20260510211222 81 336 1.0 4.0 0.00 0.00 0.00 33 1014.9
20260510210226 82 50 3.0 4.0 0.00 0.00 0.00 31 1014.8
20260510205231 82 257 2.0 4.0 0.00 0.00 0.00 33 1014.9
20260510204240 82 355 2.0 4.0 0.00 0.00 0.00 32 1014.9
20260510203215 81 355 2.0 5.0 0.00 0.00 0.00 31 1015.0
20260510202232 84 346 1.0 3.0 0.00 0.00 0.00 30 1014.9
20260510201228 84 83 1.0 3.0 0.00 0.00 0.00 32 1015.0
20260510200225 83 279 1.0 3.0 0.00 0.00 0.00 35 1015.1
20260510195214 81 24 2.0 3.0 0.00 0.00 0.00 31 1015.2
20260510194251 82 9 2.0 4.0 0.00 0.00 0.00 33 1015.3
20260510193226 81 49 2.0 4.0 0.00 0.00 0.00 33 1015.2
20260510192214 82 36 3.0 5.0 0.00 0.00 0.00 32 1015.3
20260510191241 82 86 1.0 3.0 0.00 0.00 0.00 32 1015.2
20260510190228 82 316 1.0 3.0 0.00 0.00 0.00 32 1015.3
20260510185217 81 360 2.0 4.0 0.00 0.00 0.00 34 1015.5
20260510184214 82 82 2.0 4.0 0.00 0.00 0.00 31 1015.5
20260510183230 81 360 0.0 2.0 0.00 0.00 0.00 35 1015.5
20260510182227 80 323 2.0 3.0 0.00 0.00 0.00 33 1015.6
20260510181243 81 67 2.0 5.0 0.00 0.00 0.00 35 1015.6
20260510180238 81 81 1.0 4.0 0.00 0.00 0.00 36 1015.7
20260510175248 79 16 2.0 5.0 0.00 0.00 0.00 34 1015.8
20260510174241 79 360 1.0 4.0 0.00 0.00 0.00 35 1015.9
20260510173236 79 12 1.0 3.0 0.00 0.00 0.00 35 1016.1
20260510172301 81 269 0.0 4.0 0.00 0.00 0.00 37 1016.3
20260510171227 80 59 1.0 3.0 0.00 0.00 0.00 37 1016.4
20260510170221 80 48 2.0 3.0 0.00 0.00 0.00 36 1016.4
20260510165227 81 335 1.0 5.0 0.00 0.00 0.00 36 1016.4
20260510164223 80 105 3.0 5.0 0.00 0.00 0.00 36 1016.4
20260510163240 80 97 2.0 5.0 0.00 0.00 0.00 37 1016.4
20260510162215 79 18 1.0 7.0 0.00 0.00 0.00 41 1016.5
20260510161213 80 85 4.0 7.0 0.00 0.00 0.00 36 1016.6
20260510160245 79 38 1.0 4.0 0.00 0.00 0.00 41 1016.6
20260510155214 79 90 4.0 8.0 0.00 0.00 0.00 40 1016.6
20260510154230 77 60 3.0 8.0 0.00 0.00 0.00 42 1016.6
20260510153226 77 110 2.0 5.0 0.00 0.00 0.00 47 1016.6
20260510152214 77 86 3.0 4.0 0.00 0.00 0.00 46 1016.6
20260510151230 77 92 2.0 6.0 0.00 0.00 0.00 48 1016.6
20260510150246 76 96 4.0 6.0 0.00 0.00 0.00 48 1016.7
20260510145214 74 150 0.0 8.0 0.00 0.00 0.00 57 1016.7
20260510144229 73 308 1.0 4.0 0.00 0.00 0.00 63 1016.7
20260510143226 72 5 1.0 5.0 0.00 0.00 0.00 64 1016.7
20260510142223 72 42 2.0 4.0 0.00 0.00 0.00 66 1016.7
20260510141219 71 17 1.0 3.0 0.00 0.00 0.00 76 1016.6
20260510140235 70 42 1.0 3.0 0.00 0.00 0.00 75 1016.6
20260510135225 69 36 1.0 3.0 0.00 0.00 0.00 78 1016.5
20260510134241 68 5 1.0 4.0 0.00 0.00 0.00 80 1016.6
20260510133216 67 40 1.0 3.0 0.00 0.00 0.00 84 1016.4
20260510132233 66 360 2.0 4.0 0.00 0.00 0.00 87 1016.5
20260510131229 65 48 2.0 4.0 0.00 0.00 0.00 90 1016.5
20260510130216 64 360 2.0 3.0 0.00 0.00 0.00 92 1016.5
20260510125225 64 350 1.0 3.0 0.00 0.00 0.00 92 1016.5
20260510124222 63 42 2.0 4.0 0.00 0.00 0.00 93 1016.4
20260510123218 62 46 2.0 4.0 0.00 0.00 0.00 93 1016.3
20260510122251 62 37 2.0 3.0 0.00 0.00 0.00 93 1016.1
20260510121226 61 28 1.0 2.0 0.00 0.00 0.00 93 1015.8
20260510120243 59 100 0.0 1.0 0.00 0.00 0.00 93 1015.4
20260510115212 58 136 0.0 0.0 0.00 0.00 0.00 93 1015.4
20260510114249 57 136 0.0 0.0 0.00 0.00 0.00 92 1015.3
20260510113244 57 136 0.0 0.0 0.00 0.00 0.00 92 1015.2
20260510112220 57 136 0.0 0.0 0.00 0.00 0.00 92 1015.1
20260510111236 57 136 0.0 0.0 0.00 0.00 0.00 92 1015.1
20260510110232 57 136 0.0 0.0 0.00 0.00 0.00 92 1014.9
20260510105248 57 136 0.0 0.0 0.00 0.00 0.00 92 1014.7
20260510104215 57 136 0.0 0.0 0.00 0.00 0.00 92 1014.5
20260510103301 58 136 0.0 0.0 0.00 0.00 0.00 92 1014.3
20260510102239 58 136 0.0 0.0 0.00 0.00 0.00 92 1014.1
20260510101254 58 136 0.0 0.0 0.00 0.00 0.00 92 1014.0
20260510100221 58 136 0.0 0.0 0.00 0.00 0.00 92 1014.1
20260510095238 58 136 0.0 0.0 0.00 0.00 0.00 92 1013.9
20260510094225 59 136 0.0 0.0 0.00 0.00 0.00 92 1013.7
20260510093222 59 136 0.0 0.0 0.00 0.00 0.00 92 1013.5
20260510092218 59 136 0.0 0.0 0.00 0.00 0.00 92 1013.4
20260510091230 59 136 0.0 0.0 0.00 0.00 0.00 92 1013.4
20260510090218 60 136 0.0 1.0 0.00 0.00 0.00 92 1013.2
20260510085236 60 184 1.0 2.0 0.00 0.00 0.00 92 1013.1
20260510084223 60 186 0.0 1.0 0.00 0.00 0.00 92 1013.1
20260510083219 60 186 0.0 0.0 0.00 0.00 0.00 91 1013.0
20260510082216 60 186 0.0 0.0 0.00 0.00 0.00 91 1012.8
20260510081252 61 186 0.0 1.0 0.00 0.00 0.00 91 1012.8
20260510080228 61 186 0.0 1.0 0.00 0.00 0.00 92 1012.7
20260510075217 61 186 0.0 1.0 0.00 0.00 0.00 91 1012.7
20260510074213 61 90 0.0 0.0 0.00 0.00 0.00 91 1012.6
20260510073230 61 90 0.0 0.0 0.00 0.00 0.00 91 1012.5
20260510072247 62 90 0.0 0.0 0.00 0.00 0.00 91 1012.5
20260510071213 62 90 0.0 0.0 0.00 0.00 0.00 91 1012.5
20260510070241 61 90 0.0 0.0 0.00 0.00 0.00 91 1012.6
20260510065221 61 90 0.0 0.0 0.00 0.00 0.00 91 1012.5
20260510064217 62 90 0.0 0.0 0.00 0.00 0.00 91 1012.4
20260510063213 62 90 0.0 0.0 0.00 0.00 0.00 90 1012.5
20260510062230 62 90 0.0 0.0 0.00 0.00 0.00 90 1012.5
20260510061226 62 90 0.0 0.0 0.00 0.00 0.00 90 1012.3
20260510060214 62 90 0.0 0.0 0.00 0.00 0.00 90 1012.5
20260510055232 62 90 0.0 0.0 0.00 0.00 0.00 90 1012.5
20260510054220 62 90 0.0 0.0 0.00 0.00 0.00 90 1012.5
20260510053216 63 90 0.0 0.0 0.00 0.00 0.00 89 1012.6
20260510052253 63 90 0.0 1.0 0.00 0.00 0.00 89 1012.5
20260510051228 63 178 0.0 0.0 0.00 0.00 0.00 89 1012.7
20260510050224 63 178 0.0 0.0 0.00 0.00 0.00 88 1012.8
20260510045214 64 178 0.0 0.0 0.00 0.00 0.00 88 1012.9
20260510044230 64 178 0.0 0.0 0.00 0.00 0.00 88 1012.7
20260510043226 64 178 0.0 2.0 0.00 0.00 0.00 88 1012.7
20260510042233 64 234 0.0 0.0 0.00 0.00 0.00 88 1012.7
20260510041221 64 234 0.0 1.0 0.00 0.00 0.00 88 1012.9
20260510040217 64 248 0.0 0.0 0.00 0.00 0.00 87 1012.9
20260510035230 64 248 0.0 2.0 0.00 0.00 0.00 87 1012.9
20260510034219 64 226 0.0 1.0 0.00 0.00 0.00 87 1013.0
20260510033215 64 263 0.0 2.0 0.00 0.00 0.00 87 1013.0
20260510032232 64 265 0.0 0.0 0.00 0.00 0.00 86 1012.9
20260510031228 65 265 0.0 0.0 0.00 0.00 0.00 85 1012.8
20260510030245 65 265 0.0 0.0 0.00 0.00 0.00 85 1012.8
20260510025213 65 265 0.0 0.0 0.00 0.00 0.00 84 1012.9
20260510024229 65 265 0.0 0.0 0.00 0.00 0.00 84 1012.8
20260510023226 65 265 0.0 0.0 0.00 0.00 0.00 84 1012.8
20260510022213 66 265 0.0 0.0 0.00 0.00 0.00 83 1012.6
20260510021227 66 265 0.0 0.0 0.00 0.00 0.00 83 1012.6
20260510020223 66 265 0.0 0.0 0.00 0.00 0.00 83 1012.5
20260510015232 66 263 0.0 0.0 0.00 0.00 0.00 83 1012.4
20260510014248 66 234 0.0 0.0 0.00 0.00 0.00 82 1012.3
20260510013244 67 280 0.0 0.0 0.00 0.00 0.00 81 1012.2
20260510012219 67 280 0.0 0.0 0.00 0.00 0.00 80 1012.1
20260510011215 67 280 0.0 0.0 0.00 0.00 0.00 79 1011.8
20260510010232 68 280 0.0 0.0 0.00 0.00 0.00 79 1011.8
20260510005223 68 280 0.0 0.0 0.00 0.00 0.00 79 1011.6
20260510004219 68 280 0.0 0.0 0.00 0.00 0.00 78 1011.4
20260510003235 69 244 0.0 0.0 0.00 0.00 0.00 78 1011.2
20260510002223 69 244 0.0 0.0 0.00 0.00 0.00 77 1011.0
20260510001219 70 244 0.0 0.0 0.00 0.00 0.00 76 1011.0
20260510000218 70 244 0.0 0.0 0.00 0.00 0.00 75 1010.9
20260509235227 70 273 0.0 0.0 0.00 0.00 0.00 75 1010.8
20260509234224 70 271 0.0 0.0 0.00 0.00 0.00 74 1010.8
20260509233240 70 272 0.0 3.0 0.00 0.00 0.00 74 1010.7
20260509232237 70 280 0.0 3.0 0.00 0.00 0.00 74 1010.7
20260509231224 71 276 0.0 3.0 0.00 0.00 0.00 74 1010.7
20260509230237 71 355 1.0 3.0 0.00 0.00 0.00 74 1010.6
20260509225235 71 191 1.0 3.0 0.00 0.00 0.00 74 1010.6
20260509224222 71 266 1.0 3.0 0.00 0.00 0.00 73 1010.2
20260509223218 72 265 1.0 2.0 0.00 0.00 0.00 72 1010.4
20260509222235 72 162 1.0 2.0 0.00 0.00 0.00 71 1010.2
20260509221230 72 360 2.0 5.0 0.00 0.00 0.00 72 1010.2
20260509220227 72 355 1.0 3.0 0.00 0.00 0.00 72 1010.1
20260509215217 72 306 2.0 4.0 0.00 0.00 0.00 71 1010.1